DW4839 Weather Reports


time (UTC)temp
C
wind
direction
speed
KPH
gust
KPH
rain 1hr
cm
rain 24hr
cm
rain mn
cm
humidity
%
barometer
mb
20260507094557 10 5 3.2 9.7 0.00 0.00 0.00 82 1020.9
20260507093050 10 342 3.2 8.0 0.00 0.00 0.00 83 1021.1
20260507091552 10 345 3.2 8.0 0.00 0.00 0.00 83 1021.3
20260507090051 10 344 3.2 8.0 0.00 0.00 0.00 83 1021.3
20260507084558 10 352 3.2 9.7 0.00 0.00 0.00 83 1021.3
20260507083047 10 349 4.8 12.9 0.00 0.00 0.00 83 1021.3
20260507081551 10 316 1.6 4.8 0.00 0.00 0.00 84 1021.4
20260507080054 10 341 1.6 8.0 0.00 0.00 0.00 84 1021.3
20260507074552 10 351 3.2 8.0 0.00 0.00 0.00 84 1021.3
20260507073056 10 38 1.6 6.4 0.00 0.00 0.00 84 1021.3
20260507071551 10 352 1.6 4.8 0.00 0.00 0.00 84 1021.3
20260507070103 10 352 4.8 8.0 0.00 0.00 0.00 84 1021.2
20260507064550 10 350 4.8 16.1 0.00 0.00 0.00 84 1021.3
20260507063055 10 352 4.8 16.1 0.00 0.00 0.00 84 1021.2
20260507061551 10 341 11.3 20.9 0.00 0.00 0.00 83 1021.2
20260507060051 10 342 9.7 20.9 0.00 0.00 0.00 84 1021.3
20260507054555 10 345 8.0 17.7 0.00 0.00 0.00 84 1021.3
20260507053052 10 352 8.0 22.5 0.00 0.00 0.00 83 1021.3
20260507051549 11 5 11.3 20.9 0.00 0.00 0.00 83 1021.1
20260507050109 11 336 11.3 22.5 0.00 0.00 0.00 82 1021.2
20260507044554 11 360 11.3 24.1 0.00 0.00 0.00 82 1021.3
20260507043054 11 340 11.3 25.7 0.00 0.00 0.00 81 1021.0
20260507041551 11 352 12.9 24.1 0.00 0.00 0.00 81 1020.9
20260507040053 12 342 9.7 19.3 0.00 0.00 0.00 81 1020.8
20260507034550 12 352 9.7 19.3 0.00 0.00 0.00 81 1020.6
20260507033051 12 345 11.3 22.5 0.00 0.00 0.00 81 1020.6
20260507031553 12 345 8.0 16.1 0.00 0.00 0.00 81 1020.4
20260507030054 12 347 8.0 16.1 0.00 0.00 0.00 81 1020.2
20260507024550 13 34 6.4 16.1 0.00 0.00 0.00 80 1020.0
20260507023051 13 343 4.8 14.5 0.00 0.00 0.00 80 1020.1
20260507021559 13 352 6.4 14.5 0.00 0.00 0.00 79 1020.0
20260507020056 14 339 8.0 19.3 0.00 0.00 0.00 77 1020.1
20260507014556 15 5 8.0 19.3 0.00 0.00 0.00 76 1020.3
20260507013057 15 329 8.0 17.7 0.00 0.00 0.00 76 1020.3
20260507011556 15 15 6.4 12.9 0.00 0.00 0.00 75 1020.2
20260507010054 16 340 6.4 17.7 0.00 0.00 0.00 76 1020.3
20260507004550 16 352 6.4 14.5 0.00 0.00 0.00 76 1020.3
20260507003055 16 360 8.0 14.5 0.00 0.00 0.00 74 1020.2
20260507001551 17 9 4.8 11.3 0.00 0.00 0.00 73 1020.3
20260507000054 17 32 4.8 8.0 0.00 0.00 0.00 72 1020.3
20260506234607 17 40 1.6 4.8 0.00 0.00 0.00 70 1020.2
20260506233052 17 48 1.6 3.2 0.00 0.00 0.00 71 1020.3
20260506231557 17 0 1.6 8.0 0.00 0.00 0.00 73 1020.3
20260506230057 17 162 3.2 6.4 0.00 0.00 0.00 68 1020.6
20260506224550 17 270 1.6 8.0 0.00 0.00 0.00 69 1020.6
20260506223058 17 360 1.6 6.4 0.00 0.00 0.00 71 1020.7
20260506221551 16 49 1.6 4.8 0.00 0.00 0.00 76 1020.7
20260506220049 16 23 1.6 8.0 0.00 0.00 0.00 76 1020.7
20260506214549 16 24 1.6 4.8 0.00 0.00 0.00 78 1020.5
20260506213050 15 52 4.8 8.0 0.00 0.00 0.00 78 1020.7
20260506211549 16 230 1.6 6.4 0.00 0.00 0.00 76 1021.0
20260506210046 16 278 4.8 9.7 0.00 0.00 0.00 76 1021.0
20260506204554 15 163 1.6 9.7 0.00 0.00 0.00 80 1020.9
20260506203047 15 178 4.8 11.3 0.00 0.00 0.00 81 1021.0
20260506201547 15 162 3.2 9.7 0.00 0.00 0.00 81 1021.0
20260506200107 14 221 0.0 4.8 0.00 0.00 0.00 81 1021.2
20260506194606 14 0 0.0 4.8 0.00 0.00 0.00 82 1021.3
20260506193047 14 210 3.2 8.0 0.00 0.00 0.00 81 1021.5
20260506191547 14 187 3.2 11.3 0.00 0.00 0.00 83 1021.1
20260506190053 13 281 3.2 6.4 0.00 0.00 0.00 83 1021.2
20260506184548 13 182 6.4 12.9 0.00 0.00 0.00 84 1021.1
20260506183104 13 227 1.6 4.8 0.00 0.00 0.00 85 1021.1
20260506181557 13 352 0.0 3.2 0.00 0.00 0.00 86 1021.1
20260506180051 12 188 1.6 3.2 0.00 0.00 0.00 86 1021.1
20260506174547 12 179 0.0 4.8 0.00 0.00 0.00 86 1021.0
20260506173059 12 115 0.0 4.8 0.00 0.00 0.00 87 1020.8
20260506171554 12 214 0.0 3.2 0.00 0.00 0.00 86 1020.7
20260506170053 12 305 0.0 3.2 0.00 0.00 0.00 87 1020.8
20260506164555 12 42 1.6 4.8 0.00 0.00 0.00 86 1020.8
20260506163055 12 217 1.6 4.8 0.00 0.00 0.00 86 1020.6
20260506161603 12 194 1.6 9.7 0.00 0.00 0.00 87 1020.5
20260506160055 11 0 0.0 6.4 0.00 0.00 0.00 87 1020.2
20260506154555 11 137 3.2 6.4 0.00 0.00 0.00 88 1019.8
20260506153051 11 333 1.6 4.8 0.00 0.00 0.00 89 1020.6
20260506151605 11 349 3.2 8.0 0.00 0.00 0.00 89 1020.8
20260506150051 11 11 3.2 9.7 0.00 0.00 0.00 89 1020.7
20260506144552 11 342 3.2 8.0 0.00 0.00 0.00 89 1020.5
20260506143054 11 360 3.2 4.8 0.00 0.00 0.00 89 1020.1
20260506141553 11 50 1.6 4.8 0.00 0.00 0.00 89 1019.8
20260506140106 11 30 0.0 1.6 0.00 0.00 0.00 89 1020.0
20260506134553 11 25 1.6 3.2 0.00 0.00 0.00 88 1019.9
20260506133057 11 190 0.0 3.2 0.00 0.00 0.00 88 1019.6
20260506131555 11 190 1.6 3.2 0.00 0.00 0.00 88 1019.5
20260506130105 11 5 1.6 3.2 0.00 0.00 0.00 89 1019.4
20260506124553 11 0 0.0 6.4 0.00 0.00 0.00 89 1019.3
20260506123052 11 350 4.8 9.7 0.00 0.00 0.00 89 1019.3
20260506121550 11 360 4.8 11.3 0.00 0.00 0.00 89 1019.4
20260506120053 11 352 4.8 12.9 0.00 0.00 0.00 88 1019.3
20260506114550 11 9 4.8 12.9 0.00 0.00 0.00 88 1019.0
20260506113047 11 14 4.8 11.3 0.00 0.00 0.00 88 1018.9
20260506111553 11 348 6.4 11.3 0.00 0.00 0.00 88 1018.8
20260506110100 11 341 4.8 8.0 0.00 0.00 0.00 88 1018.5
20260506104558 11 5 3.2 4.8 0.00 0.00 0.00 88 1018.3
20260506103048 11 352 1.6 3.2 0.00 0.00 0.00 87 1018.2
20260506101556 11 352 1.6 6.4 0.00 0.00 0.00 88 1018.0
20260506100050 12 0 3.2 4.8 0.00 0.00 0.00 87 1018.0